FW4663 Weather Reports


Display with metric or nautical units.
time (UTC)temp
F
wind
direction
speed
MPH
gust
MPH
rain 1hr
in
rain 24hr
in
rain mn
in
humidity
%
barometer
mb
20260502234555 71 11 6.0 13.0 0.00 0.60 0.53 46 1017.1
20260502233053 71 16 8.0 12.0 0.00 0.60 0.53 45 1017.0
20260502231557 72 355 7.0 14.0 0.00 0.60 0.53 45 1016.8
20260502230052 72 350 9.0 16.0 0.00 0.60 0.53 44 1016.7
20260502224555 73 340 6.0 15.0 0.00 0.65 0.53 44 1016.6
20260502223051 72 355 11.0 19.0 0.00 0.65 0.53 44 1016.3
20260502221549 72 9 10.0 18.0 0.00 0.65 0.53 47 1016.2
20260502220128 73 47 9.0 17.0 0.00 0.65 0.53 48 1016.1
20260502214549 73 34 11.0 17.0 0.00 0.66 0.53 45 1016.3
20260502213048 72 324 8.0 18.0 0.00 0.66 0.53 43 1016.4
20260502211548 72 14 10.0 18.0 0.00 0.66 0.53 44 1016.3
20260502210054 73 355 14.0 21.0 0.00 0.66 0.53 46 1016.3
20260502204555 72 34 10.0 20.0 0.00 0.82 0.53 49 1016.4
20260502203058 72 13 9.0 18.0 0.00 0.82 0.53 54 1016.5
20260502201544 72 14 11.0 16.0 0.00 0.82 0.53 55 1016.5
20260502200040 72 355 12.0 21.0 0.00 0.82 0.53 58 1016.6
20260502194544 72 13 8.0 25.0 0.00 1.56 0.53 59 1016.6
20260502193039 72 345 11.0 17.0 0.00 1.56 0.53 60 1016.7
20260502191542 72 44 11.0 16.0 0.00 1.56 0.53 61 1016.9
20260502190037 72 43 8.0 16.0 0.00 1.56 0.53 61 1016.7
20260502184540 72 28 7.0 19.0 0.00 2.38 0.53 59 1016.8
20260502183035 71 15 6.0 16.0 0.00 2.38 0.53 64 1016.7
20260502181536 71 105 7.0 19.0 0.00 2.38 0.53 63 1016.7
20260502163040 67 28 11.0 15.0 0.00 2.38 0.53 69 1017.8
20260502161516 66 82 8.0 16.0 0.00 2.38 0.53 72 1017.9
20260502151506 62 11 10.0 17.0 0.00 2.38 0.53 80 1017.4
20260502123054 55 61 5.0 15.0 0.00 2.38 0.53 89 1015.8
20260502121546 55 37 6.0 15.0 0.00 2.38 0.53 89 1015.6
20260502114546 55 11 7.0 14.0 0.00 2.38 0.53 93 1015.2
20260502113037 54 17 8.0 16.0 0.00 2.38 0.53 94 1014.9
20260502111536 54 18 12.0 18.0 0.00 2.38 0.53 94 1014.8
20260502110035 54 39 8.0 17.0 0.00 2.38 0.53 95 1014.7
20260502104533 54 20 9.0 14.0 0.00 2.38 0.53 94 1014.4
20260502103032 54 5 8.0 13.0 0.00 2.38 0.53 94 1014.3
20260502101531 54 360 9.0 15.0 0.00 2.38 0.53 94 1014.1
20260502091525 54 36 8.0 16.0 0.02 2.38 0.53 94 1013.8
20260502071512 55 14 9.0 14.0 0.36 2.34 0.49 95 1013.2
20260502070009 55 20 6.0 11.0 0.35 2.31 0.47 95 1014.0
20260502064514 55 5 7.0 11.0 0.35 2.29 0.45 94 1014.1
20260502063003 56 351 4.0 12.0 0.23 2.15 0.30 94 1014.2
20260502061601 56 17 9.0 15.0 0.06 1.98 0.13 94 1012.9
20260502060101 57 15 10.0 16.0 0.12 1.97 0.12 94 1013.1
20260502054558 58 22 11.0 18.0 0.12 1.95 0.10 94 1013.2
20260502053053 58 12 7.0 13.0 0.09 1.92 0.07 94 1013.4
20260502051549 58 17 7.0 15.0 0.09 1.92 0.07 94 1013.3
20260502050045 59 34 5.0 11.0 0.03 1.85 0.00 94 1013.2
20260502044551 60 59 3.0 16.0 0.02 1.83 1.83 94 1013.6
20260502043050 61 48 2.0 13.0 0.02 1.83 1.83 94 1012.8
20260502041547 61 43 3.0 11.0 0.01 1.82 1.82 94 1012.6
20260502040042 61 57 1.0 6.0 0.02 1.82 1.82 94 1012.3
20260502034541 61 57 4.0 11.0 0.01 1.81 1.81 94 1012.1
20260502033041 61 52 3.0 11.0 0.01 1.81 1.81 94 1012.1
20260502031539 61 51 3.0 6.0 0.01 1.81 1.81 94 1012.3
20260502030040 60 140 3.0 11.0 0.00 1.80 1.80 94 1012.5
20260502024541 60 95 2.0 10.0 0.00 1.80 1.80 94 1012.3
20260502023037 60 80 7.0 11.0 0.00 1.80 1.80 94 1012.0
20260502021540 60 102 5.0 12.0 0.00 1.80 1.80 94 1011.4
20260502020042 60 115 4.0 10.0 0.00 1.80 1.80 95 1011.7
20260502014550 59 45 2.0 8.0 0.00 1.80 1.80 94 1011.2
20260502013035 58 87 4.0 12.0 0.00 1.80 1.80 94 1011.2
20260502011543 58 40 4.0 11.0 0.00 1.80 1.80 94 1010.9
20260502010033 58 136 5.0 13.0 0.00 1.80 1.80 93 1011.4
20260502004533 59 23 4.0 14.0 0.00 1.80 1.80 94 1011.7
20260502003030 59 5 9.0 14.0 0.01 1.80 1.80 94 1011.9
20260502001528 59 82 5.0 17.0 0.01 1.80 1.80 94 1011.4
20260502000043 59 78 4.0 13.0 0.02 2.22 1.80 93 1011.2